Weather History for Grand Rapids, MN

Change the Weather History Date:

Friday, March 7, 2014

  Actual Average Record
Temperature  
Mean Temperature 20 °F -  
Max Temperature 26 °F 34 °F 64 °F (1987)
Min Temperature 14 °F 6 °F -34 °F (1955)
Degree Days  
Heating Degree Days 45    
Moisture  
Dew Point 17 °F    
Average Humidity 81    
Maximum Humidity 93    
Minimum Humidity 59    
Precipitation  
Precipitation 0.00 in - - ()
Sea Level Pressure  
Sea Level Pressure 29.92 in    
Wind  
Wind Speed 9 mph (NW)    
Max Wind Speed 22 mph    
Max Gust Speed 26 mph    
Visibility 6 miles    
Events      
Averages and records for this station are not official NWS values.
T = Trace of Precipitation, MM = Missing Value Source: NWS Daily Summary

Daily Weather History Graph

Daily Weather History Graph

Search for Another Location

Airport:

Trip Planner

Search our weather history database for the weather conditions in past years. The results will help you decide how hot, cold, wet, or windy it might be!

Date:

Astronomy

Mar. 07, 2014 Rise Set
Actual Time 6:42 AM CST 6:08 PM CST
Civil Twilight 6:12 AM CST 6:38 PM CST
Nautical Twilight 5:36 AM CST 7:14 PM CST
Astronomical Twilight 5:01 AM CST 7:49 PM CST
Moon 10:11 AM CST (3/7) 12:37 AM CST (3/7)
Length of Visible Light 12h 26m
Length of Day
11h 25m
Waxing Crescent, 42% of the Moon is Illuminated
Mar 7
Waxing Crescent
Mar 8
First Quarter
Mar 16
Full
Mar 23
Last Quarter
Mar 30
New

Hourly Weather History & Observations

Time (CST) Temp. Windchill Dew Point Humidity Pressure Visibility Wind Dir Wind Speed Gust Speed Precip Events Conditions
12:15 AM 24.8 °F 19.1 °F 21.2 °F 86% 29.73 in 1.5 mi SSW 4.6 mph - N/A   Overcast
12:35 AM 24.8 °F 17.9 °F 21.2 °F 86% 29.72 in 1.5 mi South 5.8 mph - N/A   Overcast
12:55 AM 24.8 °F 20.5 °F 23.0 °F 93% 29.73 in 1.2 mi South 3.5 mph - N/A   Overcast
1:15 AM 24.8 °F 16.9 °F 21.2 °F 86% 29.72 in 1.2 mi South 6.9 mph - N/A   Overcast
1:35 AM 24.8 °F 19.1 °F 21.2 °F 86% 29.72 in 1.8 mi South 4.6 mph - N/A   Overcast
1:55 AM 24.8 °F 17.9 °F 21.2 °F 86% 29.72 in 1.8 mi South 5.8 mph - N/A   Overcast
2:15 AM 24.8 °F 17.9 °F 21.2 °F 86% 29.72 in 2.0 mi South 5.8 mph - N/A   Overcast
2:35 AM 24.8 °F 17.9 °F 21.2 °F 86% 29.71 in 2.0 mi SSE 5.8 mph - N/A   Overcast
2:55 AM 24.8 °F 20.5 °F 21.2 °F 86% 29.71 in 1.8 mi SSE 3.5 mph - N/A   Overcast
3:15 AM 24.8 °F 17.9 °F 21.2 °F 86% 29.72 in 1.2 mi South 5.8 mph - N/A   Overcast
3:35 AM 24.8 °F 16.9 °F 21.2 °F 86% 29.70 in 1.2 mi SSE 6.9 mph - N/A   Overcast
3:55 AM 24.8 °F 17.9 °F 21.2 °F 86% 29.71 in 1.2 mi South 5.8 mph - N/A   Overcast
4:15 AM 24.8 °F 17.9 °F 21.2 °F 86% 29.72 in 1.0 mi South 5.8 mph - N/A   Overcast
4:35 AM 24.8 °F 17.9 °F 21.2 °F 86% 29.71 in 0.8 mi South 5.8 mph - N/A   Overcast
4:55 AM 24.8 °F 20.5 °F 23.0 °F 93% 29.72 in 0.8 mi SSW 3.5 mph - N/A   Overcast
5:15 AM 24.8 °F 17.9 °F 23.0 °F 93% 29.72 in 1.0 mi South 5.8 mph - N/A   Overcast
5:35 AM 24.8 °F 20.5 °F 23.0 °F 93% 29.72 in 1.0 mi SSW 3.5 mph - N/A   Overcast
5:55 AM 24.8 °F 19.1 °F 23.0 °F 93% 29.72 in 1.0 mi South 4.6 mph - N/A   Overcast
6:15 AM 24.8 °F 20.5 °F 23.0 °F 93% 29.73 in 1.0 mi SSW 3.5 mph - N/A   Overcast
6:35 AM 24.8 °F - 23.0 °F 93% 29.73 in 1.0 mi Calm Calm - N/A   Overcast
6:55 AM 24.8 °F 20.5 °F 23.0 °F 93% 29.75 in 0.5 mi WSW 3.5 mph - N/A   Overcast
7:15 AM 26.6 °F 22.6 °F 24.8 °F 93% 29.76 in 0.8 mi WNW 3.5 mph - N/A   Overcast
7:35 AM 26.6 °F 15.7 °F 24.8 °F 93% 29.76 in 0.8 mi WNW 12.7 mph 17.3 mph N/A   Overcast
7:55 AM 26.6 °F 13.8 °F 24.8 °F 93% 29.77 in 1.0 mi WNW 17.3 mph 20.7 mph N/A   Overcast
8:15 AM 24.8 °F 12.9 °F 23.0 °F 93% 29.78 in 1.5 mi WNW 13.8 mph 20.7 mph N/A   Overcast
8:35 AM 24.8 °F 14.0 °F 21.2 °F 86% 29.79 in 2.0 mi WNW 11.5 mph 19.6 mph N/A   Overcast
8:55 AM 24.8 °F 15.3 °F 21.2 °F 86% 29.80 in 2.0 mi NW 9.2 mph - N/A   Overcast
9:15 AM 23.0 °F 9.6 °F 21.2 °F 93% 29.81 in 2.5 mi WNW 16.1 mph 21.9 mph N/A   Overcast
9:35 AM 23.0 °F 9.6 °F 21.2 °F 93% 29.81 in 3.0 mi WNW 16.1 mph - N/A   Overcast
9:55 AM 23.0 °F 10.6 °F 21.2 °F 93% 29.81 in 3.0 mi NW 13.8 mph - N/A   Overcast
10:15 AM 23.0 °F 9.6 °F 21.2 °F 93% 29.83 in 5.0 mi NW 16.1 mph 20.7 mph N/A   Overcast
10:35 AM 23.0 °F 9.2 °F 19.4 °F 86% 29.84 in 4.0 mi NW 17.3 mph - N/A   Overcast
10:55 AM 23.0 °F 10.6 °F 19.4 °F 86% 29.85 in 4.0 mi NW 13.8 mph 25.3 mph N/A   Overcast
11:15 AM 23.0 °F 10.1 °F 19.4 °F 86% 29.87 in 3.0 mi NW 15.0 mph 21.9 mph N/A   Overcast
11:35 AM 23.0 °F 8.7 °F 19.4 °F 86% 29.87 in 6.0 mi NW 18.4 mph - N/A   Overcast
11:55 AM 23.0 °F 9.2 °F 19.4 °F 86% 29.89 in 10.0 mi NW 17.3 mph - N/A   Overcast
12:15 PM 23.0 °F 7.6 °F 19.4 °F 86% 29.90 in 10.0 mi North 21.9 mph 26.5 mph N/A   Overcast
12:35 PM 21.2 °F 6.0 °F 17.6 °F 86% 29.91 in 10.0 mi North 19.6 mph - N/A   Overcast
12:55 PM 21.2 °F 6.8 °F 17.6 °F 86% 29.92 in 10.0 mi North 17.3 mph - N/A   Overcast
1:15 PM 21.2 °F 6.0 °F 17.6 °F 86% 29.93 in 10.0 mi North 19.6 mph 25.3 mph N/A   Overcast
1:35 PM 21.2 °F 6.0 °F 17.6 °F 86% 29.94 in 10.0 mi NNW 19.6 mph 26.5 mph N/A   Overcast
1:55 PM 21.2 °F 6.4 °F 17.6 °F 86% 29.95 in 10.0 mi North 18.4 mph 26.5 mph N/A   Overcast
2:15 PM 21.2 °F 7.8 °F 15.8 °F 80% 29.96 in 10.0 mi North 15.0 mph 20.7 mph N/A   Overcast
2:35 PM 23.0 °F 9.6 °F 15.8 °F 74% 29.97 in 10.0 mi North 16.1 mph 26.5 mph N/A   Overcast
2:55 PM 23.0 °F 9.6 °F 15.8 °F 74% 29.98 in 10.0 mi North 16.1 mph - N/A   Overcast
3:15 PM 23.0 °F 11.7 °F 15.8 °F 74% 29.99 in 10.0 mi North 11.5 mph 19.6 mph N/A   Overcast
3:35 PM 24.8 °F 13.4 °F 15.8 °F 69% 30.00 in 10.0 mi North 12.7 mph 20.7 mph N/A   Overcast
3:55 PM 24.8 °F 13.4 °F 15.8 °F 69% 30.01 in 10.0 mi North 12.7 mph 18.4 mph N/A   Overcast
4:15 PM 24.8 °F 11.1 °F 14.0 °F 64% 30.01 in 10.0 mi North 18.4 mph - N/A   Overcast
4:35 PM 24.8 °F 11.9 °F 12.2 °F 59% 30.03 in 10.0 mi North 16.1 mph - N/A   Overcast
4:55 PM 24.8 °F 14.6 °F 12.2 °F 59% 30.03 in 10.0 mi North 10.4 mph 20.7 mph N/A   Overcast
5:15 PM 23.0 °F 10.6 °F 12.2 °F 63% 30.05 in 10.0 mi North 13.8 mph 18.4 mph N/A   Overcast
5:35 PM 21.2 °F 8.9 °F 12.2 °F 68% 30.06 in 10.0 mi North 12.7 mph 18.4 mph N/A   Overcast
5:55 PM 21.2 °F 8.3 °F 12.2 °F 68% 30.08 in 10.0 mi North 13.8 mph 20.7 mph N/A   Overcast
6:15 PM 21.2 °F 8.9 °F 12.2 °F 68% 30.09 in 10.0 mi North 12.7 mph - N/A   Overcast
6:35 PM 21.2 °F 10.9 °F 12.2 °F 68% 30.10 in 10.0 mi North 9.2 mph - N/A   Overcast
6:55 PM 21.2 °F 10.9 °F 12.2 °F 68% 30.12 in 10.0 mi North 9.2 mph - N/A   Overcast
7:15 PM 21.2 °F 11.7 °F 12.2 °F 68% 30.13 in 10.0 mi North 8.1 mph 17.3 mph N/A   Overcast
7:35 PM 19.4 °F 4.5 °F 10.4 °F 68% 30.13 in 10.0 mi NNW 17.3 mph - N/A   Overcast
7:55 PM 19.4 °F 5.5 °F 10.4 °F 68% 30.14 in 10.0 mi North 15.0 mph - N/A   Overcast
8:15 PM 19.4 °F 5.5 °F 10.4 °F 68% 30.16 in 10.0 mi North 15.0 mph 21.9 mph N/A   Overcast
8:35 PM 17.6 °F 2.7 °F 8.6 °F 68% 30.16 in 10.0 mi NNW 16.1 mph 20.7 mph N/A   Overcast
8:55 PM 17.6 °F 2.2 °F 10.4 °F 73% 30.16 in 10.0 mi North 17.3 mph - N/A   Overcast
9:15 PM 17.6 °F 4.3 °F 8.6 °F 68% 30.17 in 10.0 mi North 12.7 mph - N/A   Overcast
9:35 PM 15.8 °F 2.1 °F 8.6 °F 73% 30.17 in 10.0 mi North 12.7 mph - N/A   Mostly Cloudy
9:55 PM 15.8 °F 1.4 °F 8.6 °F 73% 30.17 in 10.0 mi North 13.8 mph - N/A   Mostly Cloudy
10:15 PM 15.8 °F 3.4 °F 8.6 °F 73% 30.18 in 10.0 mi NNW 10.4 mph - N/A   Overcast
10:35 PM 15.8 °F 5.1 °F 8.6 °F 73% 30.18 in 10.0 mi North 8.1 mph - N/A   Mostly Cloudy
10:55 PM 14.0 °F 3.9 °F 6.8 °F 73% 30.19 in 10.0 mi North 6.9 mph - N/A   Mostly Cloudy
11:15 PM 15.8 °F 6.1 °F 6.8 °F 68% 30.19 in 10.0 mi North 6.9 mph - N/A   Overcast
11:35 PM 14.0 °F 2.9 °F 6.8 °F 73% 30.20 in 10.0 mi North 8.1 mph - N/A   Overcast
11:55 PM 15.8 °F 3.4 °F 8.6 °F 73% 30.20 in 10.0 mi North 10.4 mph - N/A   Overcast